Regional Weather Roundup
Issued by NWS

Home | Current Version | Previous Version | Graphics & Text | Print | Product List | Glossary On
Versions: 1 2 3 4 5 6 7 8 9 10 11 12 13 14 15 16 17 18 19 20 21 22 23 24 25 26 27 28 29 30 31 32 33 34 35 36 37 38 39 40 41 42 43 44 45 46 47 48 49 50
000
ASUS43 KDMX 260903
RWRIA

WEATHER ROUNDUP FOR IOWA
NATIONAL WEATHER SERVICE DES MOINES IA
400 AM CDT FRI AUG 26 2016

NOTE: "FAIR" INDICATES FEW OR NO CLOUDS BELOW 12,000 FEET WITH NO
SIGNIFICANT WEATHER AND/OR OBSTRUCTIONS TO VISIBILITY.

* - THESE STATIONS ARE NOT NWS STATIONS...THUS NOT UNDER NWS
QUALITY CONTROL.  THEY ALSO DO NOT REPORT WEATHER SUCH
AS PRECIPITATION OR FOG.

IAZ001>003-012>014-020>022-031>034-043>046-261000-
   NORTHWEST IOWA

CITY           SKY/WX    TMP DP  RH WIND       PRES   REMARKS
CARROLL *        N/A     57  57 100 NW3       30.16R
CHEROKEE *     FOG       55  55 100 CALM      30.17R VSB 1/2
DENISON *        N/A     55  55 100 CALM      30.14F FOG
LE MARS *        N/A     54  52  94 CALM      30.17S
ORANGE CITY *    N/A     57  55  94 CALM      30.16S
SHELDON *        N/A     52  52 100 NE3       30.15F
SIOUX CITY       N/A     57  54  89 CALM      30.15F
SPENCER          N/A     51  49  92 CALM      30.17S FOG
STORM LAKE *     N/A     59  55  88 NE3       30.17S
$$

IAZ055>058-069>071-079>083-090>094-261000-
   SOUTHWEST IOWA

CITY           SKY/WX    TMP DP  RH WIND       PRES   REMARKS
ATLANTIC *       N/A     57  55  94 CALM      30.15S
AUDUBON *        N/A     55  52  88 CALM      30.17R
CLARINDA *       N/A     61  61 100 MISG      30.15F
COUNCIL BLFS *   N/A     59  59 100 NE6       30.15S
CRESTON *        N/A     61  59  94 NE6       30.16S
HARLAN  *        N/A     57  57 100 N5        30.19R
LAMONI         MOCLDY    62  62 100 CALM      30.14R
RED OAK *        N/A     61  59  94 N3        30.15R
SHENANDOAH *   FOG       59 N/A N/A CALM      30.14S VSB 1/4
$$

IAZ047>049-059>061-072>074-084-261000-
   CENTRAL IOWA

CITY           SKY/WX    TMP DP  RH WIND       PRES   REMARKS
AMES             N/A     59  59 100 N5        30.15R
ANKENY *         N/A    N/A N/A N/A MISG        N/A
BOONE *          N/A     61  57  88 N7        30.15R
CHARITON *       N/A     61  61 100 MISG      30.13S
DES MOINES     MOCLDY    65  61  87 N5        30.13S
GRINNELL*        N/A     61  59  93 N5        30.15R
KNOXVILLE *    FOG       63  61  94 CALM      30.13R VSB 1
MARSHALLTOWN     N/A     58  57  97 N7        30.14R
NEWTON *         N/A     63  63 100 CALM      30.13S
PELLA *          N/A     61  60  98 CALM      30.14S FOG
PERRY *          N/A     59  59  99 CALM      30.16R
$$

IAZ004>006-015-016-023>025-035-036-261000-
   NORTH CENTRAL IOWA

CITY           SKY/WX    TMP DP  RH WIND       PRES   REMARKS
ALGONA *         N/A     57  55  94 CALM      30.17R
ESTHERVILLE      N/A     51  51 100 NW5       30.16F
FORT DODGE *     N/A     59  55  88 N5        30.16S
MASON CITY       N/A     54  53  97 CALM      30.18S
FOREST CITY *    N/A    N/A N/A N/A MISG        N/A
WEBSTER CITY *   N/A     57  57 100 CALM      30.14R
IOWA FALLS *     N/A     59  58  94 CALM      30.17R
$$

IAZ007>011-017>019-026>030-037>042-050>054-066-261000-
   NORTHEAST IOWA

CITY           SKY/WX    TMP DP  RH WIND       PRES   REMARKS
CEDAR RAPIDS     N/A     61  61 100 N6        30.13S
CHARLES CITY *   N/A     57  57 100 CALM      30.16S
CLINTON *        N/A     62  61  96 N7        30.14R
DECORAH *        N/A     57  57 100 CALM      30.14S
DUBUQUE          N/A     62  59  90 N8        30.14F
MONTICELLO *     N/A     57  57 100 CALM      30.13F FOG
OELWEIN *        N/A     59  57  94 CALM      30.16R
WATERLOO       FOG       56  56 100 CALM      30.14S VSB 1/2
$$

IAZ064-065-067-068-078-261000-
   EAST CENTRAL IOWA

CITY           SKY/WX    TMP DP  RH WIND       PRES   REMARKS
DAVENPORT        N/A     63  61  93 N5        30.13R
IOWA CITY        N/A     64  62  93 CALM      30.14S
MT. PLEASANT * CLOUDY    67  67 100 N6        30.13R
MUSCATINE *      N/A     64  63  94 CALM      30.12S
QUAD CITIES      N/A     63  61  93 CALM      30.12R
$$

IAZ062-063-075>077-085>089-095>099-261000-
   SOUTHEAST IOWA

CITY           SKY/WX    TMP DP  RH WIND       PRES   REMARKS
BURLINGTON     CLOUDY    69  66  90 N7        30.11R
FAIRFIELD *    MOCLDY    64  63  94 CALM      30.13R
FORT MADISON *   N/A     66  66 100 CALM      30.12R
KEOKUK *       MOCLDY    70  66  88 E3        30.11R
OSKALOOSA *    CLOUDY    62  62  99 N5        30.13R
CENTERVILLE *    N/A     64  64 100 CALM      30.14S
OTTUMWA          N/A     64  62  93 CALM      30.13R
$$

ABBREVIATIONS USED IN REMARKS
   TC - TEMPERATURES IN CELSIUS
  WCI - WIND CHILL INDEX
   HX - HEAT INDEX
  VSB - VISIBILITY
$$





USA.gov is the U.S. government's official web portal to all federal, state and local government web resources and services.